Location: ????????
(60.4333°N, 46.4710°E)
Time: 19:33:26
(UTC+00:00)

GEOS 3 Rocket - Pass Details

Date: 25 November 2020
Orbit: 770 x 849 km, 115.0° (Epoch: 17 January)

Event Time Altitude Azimuth Distance (km) Brightness Sun altitude
Exits shadow 15:43:12 52° 30° (NNE) 1,051 3.9 -25.7°
Maximum altitude 15:43:48 55° 4° (N) 1,019 4.0 -25.8°
Drops below altitude 10° 15:49:04 10° 289° (WNW) 2,482 7.1 -26.4°
Sets 15:51:26 0° 285° (WNW) 3,415 8.1 -26.7°
